Location: Peterborough
(44.3091°N, 78.3197°W)
Time: 05:25:17
(UTC-04:00)

Vanguard 1 Rocket - Pass Details

Date: 28 March 2023
Orbit: 655 x 4220 km, 34.3° (Epoch: 04 June)

Event Time Altitude Azimuth Distance (km) Brightness Sun altitude
Rises 06:09:20 0° 275° (W) 5,826 - -10.1°
Exits shadow 06:16:48 10° 250° (WSW) 3,898 9.9 -8.8°
Reaches altitude 10° 06:17:07 10° 248° (WSW) 3,833 9.9 -8.8°
Maximum altitude 06:19:47 11° 232° (SW) 3,378 9.8 -8.3°
Drops below altitude 10° 06:22:05 10° 214° (SW) 3,195 9.8 -7.9°
Sets 06:26:47 0° 180° (S) 3,593 10.3 -7.1°
